Weather in Kamennyy Brod

Russia / Volgograd Oblast     49°49′19″N   44°28′38″E
temp.,
°C
wind,
m/s
gust,
m/s
humid.,
%
clouds,
%
prec.,
mm/h
press.,
hPa
HPBL,
m
7 march, sun
sun700:00−4nw6993100 0.6 1015547
03:00−6nw7128791 0.6 1017504
06:00−8nw6118869 0.0 1019393
09:00−6wnw587934 0.0 1020593
12:00−3wsw69681 0.0 10191235
15:00−1wsw8117651 0.1 10171287
18:00−3sw61377100 0.1 1014547
21:00−3sw81674100 0.1 1013829
8 march, mon
mon800:00−3sw9177699 0.0 1011805
03:00−3wsw9177687 0.0 1010793
06:00−3wsw8158276 0.0 1009725
09:00−1wsw9148080 0.0 1009814
12:00+1wsw9137899 0.0 10091151
15:00+2wsw9137499 0.1 10081304
18:000wsw61386100 0.0 1008574
21:00−1sw6128886 0.0 1009419
9 march, tue
tue900:00−1wsw6129695 0.1 1009460
03:00−2n469498 1.6 1009304
06:00−3nw2496100 0.3 1010182
09:00−4nnw5883100 0.8 1011626
12:00−2nw467426 0.0 1013905
15:00−2nw347356 0.1 1014745
18:00−4n468499 0.6 1014487
21:00−6nnw4881100 0.6 1016511
10 march, wed
wed1000:00−8nw588344 0.0 1017472
03:00−10nw478223 0.0 1019380
06:00−10nw59840 0.0 1020506
09:00−11nw68775 0.0 1022634
12:00−9nw577131 0.0 1023836
15:00−9nw686750 0.0 1023952
18:00−12nnw58712 0.0 1024672
21:00−14nnw57791 0.0 1026507
11 march, thu
thu1100:00−15n46820 0.0 1027449
03:00−16n57810 0.0 1028394
06:00−18n46850 0.0 1029291
09:00−17n45740 0.0 1031359
12:00−14n33590 0.0 1032486
15:00−12n34550 0.0 1031542
18:00−13nne23690 0.0 1032246
21:00−14nne11750 0.0 103390